Location: Dötzum
(52.0808°N, 9.8063°E)
Time: 12:28:03
(UTC+00:00)

Cosmos 1980 - Visible Passes

Search period start: 26 September 2022 00:00
Search period end: 06 October 2022 00:00
Orbit: 837 x 848 km, 71.0° (Epoch: 25 September)

Date Brightness Start Highest point End Pass type
(mag) Time Alt. Az. Time Alt. Az. Time Alt. Az.
26 Sep 5.3 01:03:53 28° NNW 01:03:53 28° NNW 01:07:57 10° NNE visible
26 Sep 6.0 02:46:36 10° NW 02:49:07 13° NNW 02:51:38 10° NNE visible
26 Sep 6.1 04:33:35 10° NNW 04:35:57 12° NNE 04:38:19 10° NE visible
26 Sep 5.9 23:07:42 20° NE 23:07:42 20° NE 23:09:22 10° NNE visible
27 Sep 5.3 00:49:32 27° NNW 00:49:32 27° NNW 00:53:17 10° NNE visible
27 Sep 6.0 02:31:49 10° NW 02:34:24 13° NNW 02:36:58 10° NNE visible
27 Sep 6.1 04:18:54 10° NNW 04:21:13 12° NNE 04:23:32 10° NE visible
27 Sep 6.0 22:53:21 18° NE 22:53:21 18° NE 22:54:42 10° NE visible
28 Sep 5.4 00:35:11 26° NNW 00:35:11 26° NNW 00:38:38 10° NNE visible
28 Sep 6.0 02:17:02 10° NW 02:19:40 13° NNW 02:22:18 10° NNE visible
28 Sep 6.2 04:04:14 10° NNW 04:06:30 12° NNE 04:08:45 10° NE visible
28 Sep 6.1 22:38:59 16° NE 22:38:59 16° NE 22:40:02 10° NE visible
29 Sep 5.5 00:20:49 26° N 00:20:49 26° N 00:23:58 10° NNE visible
29 Sep 6.0 02:02:39 11° NW 02:04:57 13° NNW 02:07:39 10° NNE visible
29 Sep 6.2 03:49:33 10° NNW 03:51:46 12° NNE 03:53:58 10° NE visible
29 Sep 6.2 22:24:37 14° NE 22:24:37 14° NE 22:25:21 10° NE visible
30 Sep 5.7 00:06:27 24° N 00:06:27 24° N 00:09:19 10° NNE visible
30 Sep 6.0 01:48:16 12° NW 01:50:13 13° NNW 01:52:59 10° NNE visible
30 Sep 6.2 03:34:53 10° NNW 03:37:02 12° N 03:39:11 10° NNE visible
30 Sep 6.3 22:10:14 12° NE 22:10:14 12° NE 22:10:41 10° NE visible
30 Sep 5.8 23:52:04 23° N 23:52:04 23° N 23:54:40 10° NNE visible
01 Oct 6.0 01:33:53 12° NW 01:35:29 14° NNW 01:38:19 10° NNE visible
01 Oct 6.2 03:20:13 10° NNW 03:22:18 12° N 03:24:24 10° NNE visible
01 Oct 6.3 21:55:51 11° NE 21:55:51 11° NE 21:56:00 10° NE visible
01 Oct 5.9 23:37:41 22° N 23:37:41 22° N 23:40:00 10° NNE visible
02 Oct 6.1 01:19:30 13° NNW 01:20:46 14° NNW 01:23:39 10° NNE visible
02 Oct 6.3 03:05:31 10° NNW 03:07:34 12° N 03:09:37 10° NNE visible
02 Oct 5.9 23:23:17 20° N 23:23:17 20° N 23:25:20 10° NNE visible
03 Oct 6.1 01:05:07 14° NNW 01:06:02 14° NNW 01:08:59 10° NNE visible
03 Oct 6.3 02:50:50 10° NNW 02:52:50 12° N 02:54:50 10° NNE visible
03 Oct 5.9 04:34:43 10° NNW 04:39:13 23° NE 04:43:41 10° E visible
03 Oct 6.0 23:08:53 19° N 23:08:53 19° N 23:10:41 10° NNE visible
04 Oct 6.1 00:50:43 14° NNW 00:51:19 14° NNW 00:54:19 10° NNE visible
04 Oct 6.3 02:36:09 10° NNW 02:38:06 12° N 02:40:03 10° NNE visible
04 Oct 5.9 04:20:04 10° NNW 04:24:30 23° NE 04:28:55 10° E visible
04 Oct 6.1 22:54:29 18° NNE 22:54:29 18° NNE 22:56:01 10° NNE visible
05 Oct 6.1 00:36:19 14° NNW 00:36:35 15° NNW 00:39:39 10° NNE visible
05 Oct 6.3 02:21:28 10° NNW 02:23:22 12° N 02:25:16 10° NNE visible
05 Oct 5.9 04:05:24 10° NNW 04:09:47 22° NE 04:14:09 10° E visible
05 Oct 6.2 22:40:05 16° NNE 22:40:05 16° NNE 22:41:21 10° NNE visible
